Port Lavaca, TX

1:44 AM CDT on September 20, 2017 (GMT -0500)
Port Lavaca

Weather History for KPKV - July, 2013

Change the Weather History Date:

Sunday, July 7, 2013

  Actual Average (KVCT) Record (KVCT)
Temperature  
Mean Temperature 83 °F -  
Max Temperature 93 °F 92 °F 105 °F (1914)
Min Temperature 75 °F 74 °F 66 °F (1924)
Cooling Degree Days 18    
Growing Degree Days 33 (Base 50)    
Moisture  
Dew Point 73 °F    
Average Humidity 76    
Maximum Humidity 93    
Minimum Humidity 49    
Precipitation  
Precipitation 0.07 in - - ()
Sea Level Pressure  
Sea Level Pressure 29.92 in    
Wind  
Wind Speed 4 mph (SE)    
Max Wind Speed 20 mph    
Max Gust Speed 25 mph    
Visibility 10 miles    
Events Rain    
Averages and records for this station are not official NWS values.
T = Trace of Precipitation, MM = Missing Value Source: NWS Daily Summary

Daily Weather History Graph

Daily Weather History Graph

Search for Another Location

Airport or City:

Trip Planner

Search our weather history database for the weather conditions in past years. The results will help you decide how hot, cold, wet, or windy it might be!

Date:

Astronomy

Jul. 07, 2013 Rise Set
Actual Time 6:35 AM CDT 8:28 PM CDT
Civil Twilight 6:08 AM CDT 8:54 PM CDT
Nautical Twilight 5:36 AM CDT 9:27 PM CDT
Astronomical Twilight 5:01 AM CDT 10:01 PM CDT
Moon 6:07 AM CDT (7/7) 7:59 PM CDT (7/7)
Length of Visible Light 14h 46m
Length of Day
13h 53m
Waning Crescent, 0% of the Moon is Illuminated
Jul 7
Waning Crescent
Jul 8
New
Jul 15
First Quarter
Jul 22
Full
Jul 29
Last Quarter

Hourly Weather History & Observations

Time (CDT) Temp. Heat Index Dew Point Humidity Pressure Visibility Wind Dir Wind Speed Gust Speed Precip Events Conditions
12:15 AM 77.5 °F - 72.7 °F 85% 29.88 in 10.0 mi Calm Calm - N/A   Clear
12:35 AM 77.2 °F - 72.9 °F 86% 29.89 in 10.0 mi Calm Calm - N/A   Clear
12:55 AM 77.0 °F - 73.0 °F 88% 29.88 in 10.0 mi Calm Calm - N/A   Clear
1:15 AM 77.0 °F - 73.2 °F 88% 29.88 in 10.0 mi SE 3.5 mph - N/A   Scattered Clouds
1:35 AM 77.2 °F - 73.6 °F 89% 29.88 in 10.0 mi ESE 4.6 mph - N/A   Clear
1:55 AM 77.2 °F - 73.6 °F 89% 29.88 in 10.0 mi SE 3.5 mph - N/A   Clear
2:15 AM 77.0 °F - 73.4 °F 89% 29.88 in 10.0 mi SSE 3.5 mph - N/A   Clear
2:35 AM 77.2 °F - 73.8 °F 89% 29.88 in 10.0 mi SE 4.6 mph - N/A   Clear
2:55 AM 77.9 °F - 74.3 °F 89% 29.88 in 10.0 mi Calm Calm - N/A   Clear
3:15 AM 77.5 °F - 73.9 °F 89% 29.88 in 10.0 mi SSE 3.5 mph - N/A   Clear
3:35 AM 77.0 °F - 73.8 °F 90% 29.88 in 10.0 mi SE 3.5 mph - N/A   Clear
3:55 AM 77.5 °F - 74.3 °F 90% 29.88 in 10.0 mi SSE 3.5 mph - N/A   Clear
4:15 AM 77.0 °F - 73.9 °F 90% 29.88 in 10.0 mi Calm Calm - N/A   Clear
4:35 AM 76.1 °F - 73.0 °F 90% 29.88 in 10.0 mi Calm Calm - N/A   Clear
4:55 AM 76.8 °F - 73.9 °F 91% 29.89 in 10.0 mi Calm Calm - N/A   Clear
5:15 AM 75.7 °F - 72.5 °F 90% 29.89 in 10.0 mi Calm Calm - N/A   Clear
5:35 AM 76.3 °F - 73.8 °F 92% 29.89 in 10.0 mi Calm Calm - N/A   Clear
5:55 AM 75.2 °F - 72.7 °F 92% 29.90 in 10.0 mi Calm Calm - N/A   Clear
6:15 AM 76.1 °F - 73.9 °F 93% 29.90 in 10.0 mi Calm Calm - N/A   Clear
6:35 AM 75.6 °F - 73.2 °F 92% 29.91 in 10.0 mi Calm Calm - N/A   Clear
6:55 AM 75.6 °F - 73.2 °F 92% 29.91 in 10.0 mi Calm Calm - N/A   Scattered Clouds
7:15 AM 76.1 °F - 73.6 °F 92% 29.92 in 10.0 mi Calm Calm - N/A   Mostly Cloudy
7:35 AM 77.7 °F - 74.7 °F 90% 29.93 in 10.0 mi Calm Calm - N/A   Scattered Clouds
7:55 AM 79.2 °F - 75.0 °F 87% 29.93 in 10.0 mi Calm Calm - N/A   Clear
8:15 AM 80.8 °F 86.3 °F 74.8 °F 82% 29.93 in 10.0 mi Calm Calm - N/A   Clear
8:35 AM 82.4 °F 89.0 °F 74.7 °F 77% 29.94 in 10.0 mi Calm Calm - N/A   Clear
8:55 AM 81.9 °F 87.7 °F 74.1 °F 77% 29.94 in 10.0 mi Calm Calm - N/A   Scattered Clouds
9:15 AM 82.2 °F 88.0 °F 73.4 °F 75% 29.95 in 10.0 mi Calm Calm - N/A   Clear
9:35 AM 83.5 °F 90.0 °F 73.8 °F 72% 29.95 in 10.0 mi NE 4.6 mph - N/A   Scattered Clouds
9:55 AM 84.4 °F 92.4 °F 74.8 °F 73% 29.96 in 10.0 mi ENE 5.8 mph - N/A   Mostly Cloudy
10:15 AM 84.9 °F 93.7 °F 75.2 °F 73% 29.95 in 10.0 mi NE 6.9 mph - N/A   Scattered Clouds
10:35 AM 85.6 °F 93.0 °F 73.6 °F 67% 29.95 in 10.0 mi ENE 8.1 mph - N/A   Scattered Clouds
10:55 AM 86.9 °F 93.7 °F 72.5 °F 62% 29.94 in 10.0 mi NE 5.8 mph - N/A   Clear
11:15 AM 86.9 °F 93.3 °F 72.1 °F 61% 29.94 in 10.0 mi NE 4.6 mph - N/A   Clear
11:35 AM 89.2 °F 95.9 °F 71.8 °F 56% 29.94 in 10.0 mi NNE 4.6 mph - N/A   Clear
11:55 AM 89.6 °F 95.2 °F 70.5 °F 53% 29.94 in 10.0 mi East 5.8 mph - N/A   Clear
12:15 PM 90.3 °F 95.7 °F 70.2 °F 51% 29.94 in 10.0 mi ENE 5.8 mph - N/A   Clear
12:35 PM 91.0 °F 97.1 °F 70.9 °F 51% 29.94 in 10.0 mi East 6.9 mph - N/A   Clear
12:55 PM 91.4 °F 96.8 °F 70.0 °F 49% 29.94 in 10.0 mi East 8.1 mph - N/A   Clear
1:15 PM 91.9 °F 99.0 °F 71.6 °F 51% 29.93 in 10.0 mi ESE 11.5 mph - N/A   Clear
1:35 PM 91.0 °F 98.2 °F 71.6 °F 53% 29.93 in 10.0 mi East 8.1 mph - N/A   Scattered Clouds
1:55 PM 91.4 °F 98.4 °F 71.6 °F 52% 29.93 in 10.0 mi ESE 10.4 mph - N/A   Scattered Clouds
2:15 PM 91.0 °F 96.6 °F 70.0 °F 50% 29.93 in 10.0 mi ESE 10.4 mph - N/A   Scattered Clouds
3:55 PM 84.7 °F 93.2 °F 75.2 °F 73% 29.93 in 10.0 mi SSE 11.5 mph - N/A   Overcast
4:15 PM 87.4 °F 95.3 °F 73.6 °F 63% 29.92 in 10.0 mi SSE 18.4 mph 21.9 mph N/A   Overcast
4:35 PM 85.3 °F 92.6 °F 73.6 °F 68% 29.92 in 10.0 mi SSE 18.4 mph 25.3 mph N/A   Overcast
5:35 PM 86.5 °F 92.9 °F 72.0 °F 62% 29.93 in 10.0 mi SSE 19.6 mph 24.2 mph N/A   Scattered Clouds
5:55 PM 86.7 °F 93.3 °F 72.5 °F 62% 29.93 in 10.0 mi South 15.0 mph 24.2 mph N/A   Mostly Cloudy
6:15 PM 86.0 °F 92.6 °F 72.5 °F 64% 29.93 in 10.0 mi South 16.1 mph 21.9 mph N/A   Mostly Cloudy
6:35 PM 84.7 °F 90.7 °F 72.3 °F 66% 29.93 in 10.0 mi SSE 16.1 mph 19.6 mph N/A   Scattered Clouds
6:55 PM 83.7 °F 89.2 °F 72.0 °F 68% 29.94 in 10.0 mi SSE 15.0 mph 18.4 mph N/A   Scattered Clouds
7:15 PM 82.4 °F 87.2 °F 71.8 °F 70% 29.94 in 10.0 mi South 11.5 mph - N/A   Scattered Clouds
7:35 PM 82.0 °F 87.2 °F 72.5 °F 73% 29.94 in 10.0 mi SSE 10.4 mph - N/A   Scattered Clouds
7:55 PM 81.5 °F 86.3 °F 72.5 °F 74% 29.94 in 10.0 mi SSE 6.9 mph - N/A   Clear
8:15 PM 81.5 °F 86.1 °F 72.0 °F 73% 29.93 in 10.0 mi SSE 5.8 mph - N/A   Clear
8:35 PM 80.8 °F 84.7 °F 71.6 °F 73% 29.93 in 10.0 mi SSE 6.9 mph - N/A   Clear
8:55 PM 80.6 °F 84.4 °F 71.2 °F 73% 29.93 in 10.0 mi South 4.6 mph - N/A   Clear
9:15 PM 79.7 °F - 71.6 °F 76% 29.94 in 10.0 mi SSE 3.5 mph - N/A   Clear
9:35 PM 79.2 °F - 72.0 °F 78% 29.94 in 10.0 mi SSE 3.5 mph - N/A   Clear
9:55 PM 79.2 °F - 72.1 °F 79% 29.95 in 10.0 mi SSE 4.6 mph - N/A   Clear
10:15 PM 78.8 °F - 72.1 °F 80% 29.96 in 10.0 mi SSE 6.9 mph - N/A   Clear
10:35 PM 79.3 °F - 72.9 °F 80% 29.97 in 10.0 mi SE 8.1 mph - N/A   Clear
10:55 PM 79.3 °F - 73.0 °F 81% 29.98 in 10.0 mi SSE 8.1 mph - N/A   Scattered Clouds
11:15 PM 79.7 °F - 73.2 °F 80% 29.99 in 10.0 mi SSE 9.2 mph - N/A   Scattered Clouds
11:35 PM 79.3 °F - 72.9 °F 80% 29.99 in 10.0 mi SSE 8.1 mph - N/A   Clear
11:55 PM 79.2 °F - 73.2 °F 82% 30.00 in 7.0 mi South 18.4 mph 23.0 mph 0.07 in Rain Heavy Rain